Hourly Weather Roundup
Issued by NWS

Home | Current Version | Previous Version | Text Only | Print | Product List | Glossary On
Versions: 1 2 3 4 5 6 7 8 9 10 11 12 13 14 15 16 17 18 19 20 21 22 23 24 25 26 27 28 29 30 31 32 33 34 35 36 37 38 39 40 41 42 43 44 45 46 47 48 49 50
000
NZUS43 KILX 070810
HWRCRS

CRS HOURLY WEATHER ROUNDUP
NATIONAL WEATHER SERVICE, LINCOLN IL
300 AM CDT THU MAY 07 2015


CITY           SKY/WX    TMP DP  RH WIND       PRES   REMARKS
CHAMPAIGN      CLEAR     64  54  69 SE6       30.06F
LAWRENCEVILLE  MOCLDY    65  59  81 CALM      30.07F
PEORIA         CLEAR     69  54  58 S8        30.01F
SPRINGFIELD    CLEAR     69  54  58 S10       30.03S
$$


CITY           SKY/WX    TMP DP  RH WIND       PRES   REMARKS
BLOOMINGTON    CLEAR     63  56  78 S9        30.05F
DECATUR        CLEAR     65  54  67 S6        30.05F
EFFINGHAM      CLEAR     60  55  83 E5        30.07S
FLORA          CLEAR     59  55  86 CALM      30.07S
GALESBURG      CLEAR     65  54  69 SE8       29.99S
JACKSONVILLE   PTCLDY    71  54  55 S9        30.01S
LACON          CLEAR     64  54  69 SE6       30.01S
LINCOLN        CLEAR     65  55  69 S5        30.02S
LITCHFIELD     CLEAR     64  53  68 SE6       30.04S

CITY           SKY/WX    TMP DP  RH WIND       PRES   REMARKS
MACOMB         CLEAR     65  55  72 S8        30.01S
MATTOON        CLEAR     64  55  72 S5        30.05F
MOLINE         CLEAR     65  54  67 SE7       29.97S
OLNEY          PTCLDY    61  55  82 CALM      30.07S
PARIS          CLEAR     61  54  79 CALM      30.08S
PONTIAC        CLEAR     60  57  88 CALM      30.05S
QUINCY         MOCLDY    65  51  60 SE8       29.98S
RANTOUL        CLEAR     64  55  74 SE3       30.06F
ROBINSON       PTCLDY    59  55  87 CALM      30.08S
TAYLORVILLE    CLEAR     63  54  72 S6        30.04S
TERRE HAUTE    CLEAR     61  55  81 CALM      30.07F
$$


CITY           SKY/WX    TMP DP  RH WIND       PRES   REMARKS
BURLINGTON     CLEAR     68  54  60 S10       29.96S
CHICAGO        PTCLDY    53  50  89 E3        30.05F
DES MOINES     CLOUDY    69  55  60 S20G26    29.81F
EVANSVILLE     CLEAR     63  58  83 CALM      30.08S
INDIANAPOLIS   CLEAR     65  52  62 CALM      30.08S
KANSAS CITY    MOCLDY    69  57  65 S21G33    29.81F
MILWAUKEE      CLEAR     45  43  93 E3        30.06F
ST LOUIS       MOCLDY    72  51  47 SE9       30.02S
$$




USA.gov is the U.S. government's official web portal to all federal, state and local government web resources and services.